Regional Weather Roundup
Issued by NWS Green Bay, WI

Home | Current Version | Previous Version | Graphics & Text | Print | Product List | Glossary Off
Versions: 1 2 3 4 5 6 7 8 9 10 11 12 13 14 15 16 17 18 19 20 21 22 23 24 25 26 27 28 29 30 31 32 33 34 35 36 37 38 39 40 41 42 43 44 45 46 47 48 49 50

000
ASUS43 KGRB 201701
RWRGRB

NORTH-CENTRAL AND NORTHEAST WISCONSIN REGIONAL WEATHER ROUNDUP
NATIONAL WEATHER SERVICE GREEN BAY WI
1200 PM CDT SUN MAY 20 2018

WIZ005-009-010>012-018-019-201800-
NORTH CENTRAL WISCONSIN

CITY           SKY/WX    TMP DP  RH WIND       PRES   REMARKS
IRONWOOD       FAIR      60  29  30 VRB5      30.27F
MANITOWISH WTR FAIR      60  28  29 N10       30.26S
ARBOR VITAE    FAIR      62  28  27 SE8G17    30.26S
EAGLE RIVER    FAIR      60  24  25 CALM      30.26S
LAND O LAKES   FAIR      61  26  27 E5        30.28S
RHINELANDER    FAIR      61  28  28 VRB5      30.26F
PHILLIPS       FAIR      60  30  32 NE6       30.26S
ANTIGO         FAIR      57  29  34 SE7       30.26S
TOMAHAWK       NOT AVBL
MERRILL        NOT AVBL
$$

WIZ013-073-201800-
NORTHEAST WISCONSIN

CITY           SKY/WX    TMP DP  RH WIND       PRES   REMARKS
IRON MOUNTAIN  FAIR      62  24  23 N9G17     30.24S
MARINETTE      NOT AVBL
$$

WIZ017-030-035>037-045-201800-
CENTRAL WISCONSIN

CITY           SKY/WX    TMP DP  RH WIND       PRES   REMARKS
MEDFORD        NOT AVBL
WAUSAU         FAIR      59  29  31 E7        30.24R
MOSINEE        MOSUNNY   59  34  38 E7        30.26S
MARSHFIELD     FAIR      60  41  49 E13       30.23F
WISC RAPIDS    FAIR      62  41  46 E6        30.24F
STEVENS POINT  NOT AVBL
WAUPACA        NOT AVBL
SHAWANO        FAIR      60  32  34 E7        30.26F
CLINTONVILLE   FAIR      58  34  40 NE8       30.26S
WAUTOMA        CLOUDY    54  44  69 E7        30.25F
$$

WIZ038-039-048-051-201800-
FOX VALLEY

CITY           SKY/WX    TMP DP  RH WIND       PRES   REMARKS
NWS GREEN BAY  FAIR      55  38  52 NE14      30.27S
APPLETON       PTSUNNY   55  39  54 NE6       30.24F
OSHKOSH        CLOUDY    53  45  74 NE9       30.25S
FOND DU LAC    CLOUDY    52  44  74 N10       30.24F
$$

WIZ022-050-052-201800-
EAST CENTRAL WISCONSIN

CITY           SKY/WX    TMP DP  RH WIND       PRES   REMARKS
EPHRAIM        NOT AVBL
WASHINGTON ISL NOT AVBL
STURGEON BAY   FAIR      51  36  56 N8        30.27S
MANITOWOC      PTSUNNY   52  41  66 NE8       30.26F
SHEBOYGAN      PTSUNNY   50  43  77 NE9G17    30.25F
$$

LMZ563-521-522-541>543-201800-
LAKESHORE

STATION/POSITION TIME  TEMP    WIND        PRES    VSBY  WAVE
                       AIR SEA DIR/SP/G                  HT/PER
                 (UTC) (F)     (DEG/KT/KT) (MB)    (MI)  (FT/S)
SHEBOYGAN LKSHOR 1600   42      20/ 15/ 17 1025.4R
KEWAUNEE LKSHORE 1630   46      60/  5/  9 1024.4R
NORTHPORT PIER   1640   46                 1024.7S
SISTER BAY LKSHO 1627   46      20/ 12/ 13   N/A
MENOMINEE LKSHOR 1630   46      50/  5/  7 1024.8S
$$



USA.gov is the U.S. government's official web portal to all federal, state and local government web resources and services.